Location: Eastchurch
(51.4000°N, 0.8667°E)
Time: 20:57:02
(UTC+00:00)

Cosmos 1605 Rocket - Pass Details

Date: 19 January 2026
Orbit: 944 x 1005 km, 82.9° (Epoch: 15 February)

Event Time Altitude Azimuth Distance (km) Brightness Sun altitude
Rises 18:29:20 0° 351° (N) 3,746 7.1 -19.0°
Reaches altitude 10° 18:31:56 10° 355° (N) 2,790 6.4 -19.4°
Maximum altitude 18:38:17 60° 75° (ENE) 1,139 4.0 -20.4°
Drops below altitude 10° 18:44:31 10° 155° (SSE) 2,747 6.2 -21.4°
Sets 18:47:04 0° 159° (SSE) 3,684 6.9 -21.8°
